#timestamp,LO_Frequency,Hit,StdDev 
1545307215.5,286047000.7,N
1545307235.3,286047000.5,N
1545307255.2,286047000.4,N
1545307275.9,286047002.1,N
1545307295.7,286047002.4,N
1545307315.6,286047000.8,N
1545307335.4,286046998.6,N
1545307355.3,286047001.2,N
1545307375.1,286047000.2,N
1545307376.0,286047000.2,N
1545307395.8,286046999.8,N
1545307415.7,286046999.9,N
1545307435.5,286047002.3,N
1545307455.3,286047001.9,N
1545307475.2,286047001.9,N
1545307495.0,286047002.3,N
1545307495.9,286047002.3,N
1545307515.8,286047001.5,N
1545307535.6,286047004.0,N
1545307555.4,286047002.1,N
1545307575.3,286047003.4,N
1545307595.1,286047004.5,N
1545307615.9,286047005.8,Y
1545307635.7,286047005.4,P
1545307655.5,286047007.5,P
1545307675.4,286047007.3,N
1545307695.2,286047008.9,Y
1545307715.0,286047006.5,P
1545307716.0,286047006.5,P
1545307735.8,286047009.3,P
1545307755.6,286047012.6,Y
1545307775.5,286047005.3,P
1545307795.3,286047004.1,P
1545307815.1,286047003.5,P
1545307835.9,286047001.8,N
1545307855.7,286046998.2,N
1545307875.6,286046998.4,N
1545307895.4,286046999.4,N
1545307915.2,286046996.8,N
1545307935.1,286046995.5,N
1545307936.0,286046995.5,N
1545307955.8,286046994.1,N
1545307975.6,286046994.2,N
1545307995.5,286046991.8,N
1545308015.3,286046994.8,N
1545308035.2,286046992.0,N
1545308055.9,286046991.8,N
1545308075.7,286046994.4,N
1545308095.6,286046993.3,N
1545308115.4,286046994.2,N
1545308135.2,286046993.7,N
1545308155.1,286046993.7,N
1545308156.0,286046993.7,N
1545308175.8,286046994.7,N
1545308195.7,286046994.6,N
1545308215.5,286046994.5,N
1545308235.3,286046993.8,N
1545308255.2,286046993.5,N
1545308275.0,286046993.8,N
1545308275.9,286046993.8,N
1545308295.8,286046993.3,N
1545308315.6,286046995.1,N
1545308335.4,286046995.8,N
1545308355.3,286046993.5,N
1545308375.1,286046994.0,N
1545308395.8,286046994.2,Y
1545308415.7,286047001.0,P
1545308435.5,286047000.7,N
1545308455.4,286046998.3,N
1545308475.2,286046999.4,N
1545308495.0,286046999.1,N
1545308495.9,286046999.1,N
1545308515.8,286047000.7,N
1545308535.6,286047001.2,N
1545308555.4,286047000.7,N
1545308575.3,286047001.0,N
1545308595.1,286047000.6,N
1545308615.9,286046998.8,N
1545308635.7,286047000.6,N
1545308655.5,286047000.0,N
1545308675.4,286047000.6,N
1545308695.2,286047000.4,N
1545308715.0,286047001.2,N
1545308716.0,286047001.2,N
1545308735.8,286047001.1,N
1545308755.6,286047002.6,N
1545308775.5,286047000.2,N
1545308795.3,286047001.0,N
1545308815.1,286047001.0,N
1545308835.9,286047000.1,N
1545308855.7,286046999.8,N
1545308875.6,286047001.5,N
1545308895.4,286047002.0,N
1545308915.2,286047002.1,N
1545308935.1,286047000.2,N
1545308936.0,286047000.2,N
1545308955.8,286047001.0,N
1545308975.6,286047000.3,N
1545308995.5,286047002.8,N
1545309015.3,286047002.0,N
1545309035.2,286047001.6,N
1545309055.9,286047002.0,N
1545309075.7,286047004.0,Y
1545309095.6,286047002.1,P
1545309115.4,286047002.5,P
1545309135.2,286047001.5,N
1545309155.1,286047000.1,N
1545309156.0,286047000.1,N
1545309175.8,286046999.9,N
1545309195.7,286047001.5,N
1545309215.5,286047003.4,Y
1545309235.3,286047002.4,P
1545309255.2,286047000.5,N
1545309275.0,286046998.2,N
1545309275.9,286046998.2,N
1545309295.8,286046996.6,N
1545309315.6,286046999.3,N
1545309335.4,286046999.6,N
1545309355.3,286046995.0,N
1545309375.1,286046997.3,N
1545309395.8,286046997.4,N
1545309415.7,286046995.5,N
1545309435.5,286046995.3,N
1545309455.4,286046998.0,N
1545309475.2,286046997.9,N
1545309495.0,286046999.0,N
1545309495.9,286046999.0,N
1545309515.8,286046997.4,N
1545309535.6,286046997.9,N
1545309555.5,286046995.3,N
1545309575.3,286046997.2,N
1545309595.1,286046997.7,N
1545309615.9,286046997.9,N
1545309635.7,286046997.4,N
1545309655.5,286046996.6,N
1545309675.4,286046998.0,N
1545309695.2,286046997.8,N
1545309715.1,286046995.9,N
1545309716.0,286046995.9,N
1545309735.8,286046995.7,N
1545309755.6,286046997.1,N
1545309775.5,286046999.1,N
1545309795.3,286046999.6,N
1545309815.1,286046996.9,N
1545309835.9,286046996.8,N
1545309855.7,286046997.6,N
1545309875.6,286046998.8,N
1545309895.4,286047001.7,N
1545309915.2,286047005.4,Y
1545309935.1,286047008.3,P
1545309936.0,286047008.3,N
1545309955.8,286047008.8,N
1545309975.7,286047009.9,N
1545309995.5,286047012.1,N
1545310015.3,286047011.2,N
1545310035.2,286047014.4,Y
1545310055.0,286047008.7,P
1545310055.9,286047008.7,P
1545310075.7,286047013.6,P
1545310095.6,286047013.1,Y
1545310115.4,286047002.7,P
1545310135.3,286046998.3,N
1545310155.1,286046999.0,N
1545310175.8,286046997.2,N
1545310195.7,286046996.0,N
1545310215.5,286046994.3,N
1545310235.4,286046990.2,N
1545310255.2,286046991.2,N
1545310275.0,286046987.5,N
1545310275.9,286046987.5,N
1545310295.8,286046987.6,N
1545310315.6,286046985.7,N
1545310335.4,286046986.6,N
1545310355.3,286046984.3,N
1545310375.1,286046985.2,N
1545310395.9,286046982.3,N
1545310415.7,286046982.8,N
1545310435.5,286046983.0,N
1545310455.4,286046982.8,N
1545310475.2,286046982.3,N
1545310495.0,286046983.2,N
1545310496.0,286046983.2,N
1545310515.8,286046983.5,N
1545310535.6,286046984.7,N
1545310555.5,286046982.6,N
1545310575.3,286046982.7,N
1545310595.1,286046983.1,N
1545310615.9,286046980.6,N
1545310635.7,286046980.5,N
1545310655.6,286046980.5,N
1545310675.4,286046981.1,Y
1545310725.3,286046996.3,E
1545310735.2,286046995.0,N
1545310755.0,286046998.7,P
1545310755.9,286046998.7,N
1545310775.8,286046998.2,N
1545310795.6,286046998.8,N
